QPF
0.19 0.20 0.16 0.09 0.03 0.01 0.00 0.00 0.00 0.00 0.00 0.00 0.00 0.00 0.00 0.00 0.00 0.00 0.00 0.00 0.00 0.00 0.00 0.00 0.00 0.00 0.00 0.00 0.00 0.00 0.00 0.00 0.00 0.00 0.00 0.01 0.00 0.00 0.00 0.01 0.01 0.02 0.03 0.03
0.17 0.14 0.09 0.06 0.04 0.02 0.01 0.01 0.00 0.00 0.00 0.00 0.00 0.00 0.00 0.00 0.00 0.00 0.00 0.00 0.00 0.00 0.00 0.00 0.00 0.00 0.00 0.00 0.00 0.00 0.00 0.00 0.00 0.00 0.00 0.00 0.00 0.00 0.00 0.01 0.01 0.02 0.02 0.04
0.13 0.11 0.08 0.08 0.07 0.04 0.02 0.01 0.01 0.00 0.00 0.00 0.00 0.00 0.00 0.00 0.00 0.00 0.00 0.00 0.00 0.00 0.00 0.00 0.00 0.00 0.00 0.00 0.00 0.00 0.00 0.00 0.00 0.00 0.00 0.00 0.00 0.00 0.00 0.00 0.00 0.00 0.01 0.02
0.12 0.09 0.08 0.09 0.08 0.05 0.03 0.02 0.01 0.01 0.00 0.00 0.00 0.00 0.00 0.00 0.00 0.00 0.00 0.00 0.00 0.00 0.00 0.00 0.00 0.00 0.00 0.00 0.00 0.00 0.00 0.00 0.00 0.00 0.00 0.00 0.00 0.00 0.00 0.00 0.00 0.00 0.01 0.01
0.10 0.08 0.07 0.07 0.06 0.06 0.04 0.02 0.02 0.01 0.01 0.00 0.00 0.00 0.00 0.00 0.00 0.00 0.00 0.00 0.00 0.00 0.00 0.00 0.00 0.00 0.00 0.00 0.00 0.00 0.00 0.00 0.00 0.00 0.00 0.00 0.00 0.00 0.00 0.00 0.00 0.00 0.01 0.01
0.07 0.06 0.06 0.05 0.05 0.05 0.04 0.03 0.03 0.02 0.01 0.01 0.00 0.00 0.00 0.00 0.00 0.00 0.00 0.00 0.00 0.00 0.00 0.00 0.00 0.00 0.00 0.00 0.00 0.00 0.00 0.00 0.00 0.00 0.00 0.00 0.00 0.00 0.00 0.00 0.00 0.00 0.01 0.01
0.08 0.06 0.05 0.04 0.05 0.05 0.04 0.05 0.06 0.05 0.02 0.00 0.00 0.00 0.00 0.00 0.00 0.00 0.00 0.00 0.00 0.00 0.00 0.00 0.00 0.00 0.00 0.00 0.00 0.00 0.00 0.00 0.00 0.00 0.00 0.00 0.00 0.00 0.00 0.00 0.00 0.01 0.01 0.01
0.05 0.07 0.04 0.04 0.04 0.04 0.03 0.03 0.03 0.02 0.00 0.00 0.00 0.00 0.00 0.00 0.00 0.00 0.00 0.00 0.00 0.00 0.00 0.00 0.00 0.00 0.00 0.00 0.00 0.00 0.00 0.00 0.00 0.00 0.00 0.00 0.00 0.00 0.00 0.00 0.00 0.00 0.01 0.01
0.01 0.04 0.03 0.03 0.03 0.02 0.02 0.02 0.01 0.00 0.00 0.00 0.00 0.00 0.00 0.00 0.00 0.00 0.00 0.00 0.00 0.00 0.00 0.00 0.00 0.00 0.00 0.00 0.00 0.00 0.00 0.00 0.00 0.00 0.00 0.00 0.00 0.00 0.00 0.00 0.00 0.00 0.00 0.01
0.00 0.03 0.03 0.02 0.02 0.02 0.02 0.01 0.01 0.00 0.00 0.00 0.00 0.00 0.00 0.00 0.00 0.00 0.00 0.00 0.00 0.00 0.00 0.00 0.00 0.00 0.00 0.00 0.00 0.00 0.00 0.00 0.00 0.00 0.00 0.00 0.00 0.00 0.00 0.00 0.00 0.00 0.00 0.00
0.01 0.02 0.04 0.02 0.01 0.01 0.01 0.01 0.00 0.00 0.00 0.00 0.00 0.00 0.00 0.00 0.00 0.00 0.00 0.00 0.00 0.00 0.00 0.00 0.00 0.00 0.00 0.00 0.00 0.00 0.00 0.00 0.00 0.00 0.00 0.00 0.00 0.00 0.00 0.00 0.00 0.00 0.00 0.00
0.01 0.01 0.02 0.01 0.00 0.00 0.00 0.00 0.00 0.00 0.00 0.00 0.00 0.00 0.00 0.00 0.00 0.00 0.00 0.00 0.00 0.00 0.00 0.00 0.00 0.00 0.00 0.00 0.00 0.00 0.00 0.00 0.00 0.00 0.00 0.00 0.00 0.00 0.00 0.00 0.00 0.00 0.00 0.00
0.01 0.00 0.01 0.01 0.00 0.00 0.00 0.00 0.00 0.00 0.00 0.00 0.00 0.00 0.00 0.00 0.00 0.00 0.00 0.00 0.00 0.00 0.00 0.00 0.00 0.00 0.00 0.00 0.00 0.00 0.00 0.00 0.00 0.00 0.00 0.00 0.00 0.00 0.00 0.00 0.00 0.00 0.00 0.00
0.01 0.00 0.00 0.00 0.00 0.00 0.00 0.00 0.00 0.00 0.00 0.00 0.00 0.00 0.00 0.00 0.00 0.00 0.00 0.00 0.00 0.00 0.00 0.00 0.00 0.00 0.00 0.00 0.00 0.00 0.00 0.00 0.00 0.00 0.00 0.00 0.01 0.01 0.01 0.01 0.01 0.01 0.01 0.01
0.00 0.00 0.00 0.00 0.00 0.00 0.00 0.00 0.00 0.00 0.00 0.00 0.00 0.00 0.00 0.00 0.00 0.00 0.00 0.00 0.00 0.00 0.00 0.00 0.00 0.00 0.00 0.00 0.00 0.00 0.00 0.00 0.00 0.00 0.01 0.01 0.01 0.02 0.03 0.03 0.03 0.03 0.03 0.02
0.00 0.00 0.00 0.00 0.00 0.00 0.00 0.00 0.00 0.00 0.00 0.00 0.00 0.00 0.00 0.00 0.00 0.00 0.00 0.00 0.00 0.00 0.00 0.00 0.00 0.00 0.00 0.00 0.00 0.00 0.00 0.00 0.00 0.01 0.01 0.01 0.01 0.02 0.04 0.04 0.04 0.05 0.06 0.07
0.00 0.00 0.00 0.00 0.00 0.00 0.00 0.00 0.00 0.00 0.00 0.00 0.00 0.00 0.00 0.00 0.00 0.00 0.00 0.00 0.00 0.00 0.00 0.00 0.00 0.00 0.00 0.00 0.00 0.00 0.00 0.00 0.00 0.00 0.01 0.01 0.02 0.03 0.04 0.07 0.10 0.10 0.10 0.14
0.00 0.00 0.00 0.00 0.00 0.00 0.00 0.00 0.00 0.00 0.00 0.00 0.00 0.00 0.00 0.00 0.00 0.00 0.00 0.00 0.00 0.00 0.00 0.00 0.00 0.00 0.00 0.00 0.00 0.00 0.00 0.00 0.00 0.00 0.01 0.01 0.03 0.05 0.05 0.06 0.09 0.11 0.14 0.17
0.00 0.00 0.00 0.00 0.00 0.00 0.00 0.00 0.00 0.00 0.00 0.00 0.00 0.00 0.00 0.00 0.00 0.00 0.00 0.00 0.00 0.00 0.00 0.00 0.00 0.00 0.00 0.00 0.00 0.00 0.00 0.00 0.00 0.00 0.01 0.01 0.01 0.02 0.05 0.07 0.09 0.10 0.12 0.15
0.00 0.00 0.01 0.01 0.00 0.00 0.00 0.00 0.00 0.00 0.01 0.01 0.00 0.00 0.00 0.00 0.00 0.00 0.00 0.00 0.00 0.00 0.00 0.00 0.00 0.00 0.00 0.00 0.00 0.00 0.00 0.00 0.00 0.00 0.01 0.01 0.01 0.02 0.04 0.07 0.10 0.11 0.12 0.12
0.01 0.01 0.01 0.01 0.00 0.00 0.00 0.00 0.00 0.01 0.03 0.01 0.00 0.00 0.00 0.00 0.00 0.00 0.00 0.00 0.00 0.00 0.00 0.00 0.00 0.00 0.00 0.00 0.00 0.00 0.00 0.00 0.00 0.01 0.01 0.01 0.02 0.02 0.03 0.05 0.06 0.07 0.08 0.07
0.00 0.00 0.00 0.00 0.00 0.00 0.01 0.01 0.01 0.02 0.01 0.00 0.00 0.00 0.00 0.00 0.00 0.00 0.00 0.00 0.00 0.00 0.00 0.00 0.00 0.00 0.00 0.00 0.00 0.00 0.00 0.01 0.01 0.01 0.01 0.02 0.02 0.02 0.03 0.04 0.05 0.05 0.04 0.03
0.00 0.00 0.00 0.00 0.00 0.00 0.01 0.01 0.01 0.01 0.01 0.00 0.00 0.00 0.00 0.00 0.00 0.00 0.00 0.00 0.00 0.00 0.00 0.00 0.00 0.00 0.00 0.00 0.00 0.00 0.00 0.00 0.01 0.01 0.01 0.01 0.01 0.01 0.01 0.02 0.02 0.02 0.01 0.01
0.00 0.00 0.00 0.00 0.00 0.00 0.00 0.00 0.00 0.00 0.00 0.00 0.00 0.00 0.00 0.00 0.00 0.00 0.00 0.00 0.00 0.00 0.00 0.00 0.00 0.00 0.00 0.00 0.00 0.00 0.00 0.00 0.00 0.00 0.00 0.00 0.00 0.01 0.01 0.00 0.00 0.00 0.00 0.00
0.00 0.00 0.00 0.00 0.00 0.00 0.00 0.00 0.00 0.00 0.00 0.00 0.00 0.00 0.00 0.00 0.00 0.00 0.00 0.00 0.00 0.00 0.00 0.00 0.00 0.00 0.00 0.00 0.00 0.00 0.00 0.00 0.00 0.00 0.00 0.00 0.00 0.00 0.00 0.00 0.00 0.00 0.00 0.00
0.00 0.00 0.00 0.01 0.01 0.01 0.01 0.01 0.00 0.00 0.00 0.00 0.00 0.00 0.00 0.00 0.00 0.00 0.00 0.00 0.00 0.00 0.00 0.00 0.00 0.00 0.00 0.00 0.00 0.00 0.00 0.00 0.00 0.00 0.00 0.00 0.00 0.00 0.00 0.00 0.00 0.00 0.00 0.00
MSLP
1012.11 1012.41 1012.67 1012.89 1013.06 1013.23 1013.40 1013.59 1013.81 1014.03 1014.25 1014.41 1014.49 1014.47 1014.34 1014.12 1013.83 1013.50 1013.19 1012.91 1012.69 1012.53 1012.43 1012.37 1012.33 1012.30 1012.28 1012.27 1012.29 1012.33 1012.43 1012.57 1012.77 1013.00 1013.27 1013.55 1013.83 1014.10 1014.34 1014.57 1014.77 1014.97 1015.16 1015.37
1012.20 1012.53 1012.82 1013.04 1013.20 1013.34 1013.46 1013.61 1013.78 1013.97 1014.15 1014.31 1014.40 1014.41 1014.32 1014.15 1013.90 1013.61 1013.32 1013.05 1012.81 1012.63 1012.49 1012.38 1012.30 1012.24 1012.19 1012.15 1012.14 1012.16 1012.22 1012.33 1012.48 1012.67 1012.89 1013.11 1013.34 1013.56 1013.76 1013.95 1014.14 1014.32 1014.50 1014.71
1012.29 1012.69 1013.03 1013.28 1013.46 1013.58 1013.67 1013.76 1013.87 1014.00 1014.14 1014.26 1014.35 1014.37 1014.32 1014.20 1014.01 1013.78 1013.53 1013.28 1013.05 1012.86 1012.69 1012.55 1012.42 1012.32 1012.23 1012.16 1012.11 1012.10 1012.13 1012.20 1012.31 1012.44 1012.60 1012.76 1012.92 1013.07 1013.22 1013.35 1013.49 1013.65 1013.81 1014.01
1012.38 1012.87 1013.28 1013.58 1013.79 1013.90 1013.97 1014.00 1014.04 1014.10 1014.16 1014.24 1014.29 1014.32 1014.30 1014.23 1014.10 1013.94 1013.76 1013.56 1013.36 1013.17 1012.98 1012.81 1012.65 1012.50 1012.37 1012.26 1012.18 1012.14 1012.14 1012.17 1012.23 1012.31 1012.39 1012.48 1012.56 1012.63 1012.70 1012.78 1012.87 1012.98 1013.12 1013.29
1012.49 1013.06 1013.53 1013.89 1014.13 1014.25 1014.29 1014.27 1014.24 1014.21 1014.19 1014.20 1014.21 1014.22 1014.22 1014.19 1014.14 1014.05 1013.94 1013.81 1013.66 1013.49 1013.32 1013.13 1012.94 1012.76 1012.59 1012.44 1012.33 1012.25 1012.21 1012.20 1012.21 1012.23 1012.25 1012.26 1012.26 1012.25 1012.24 1012.24 1012.27 1012.33 1012.44 1012.60
1012.62 1013.24 1013.77 1014.18 1014.44 1014.56 1014.57 1014.51 1014.40 1014.28 1014.18 1014.11 1014.06 1014.05 1014.05 1014.06 1014.06 1014.06 1014.03 1013.98 1013.89 1013.78 1013.62 1013.44 1013.24 1013.04 1012.84 1012.66 1012.52 1012.40 1012.33 1012.28 1012.24 1012.20 1012.15 1012.08 1012.00 1011.91 1011.82 1011.75 1011.72 1011.73 1011.81 1011.95
1012.77 1013.42 1013.97 1014.40 1014.67 1014.79 1014.78 1014.67 1014.50 1014.31 1014.12 1013.97 1013.87 1013.81 1013.80 1013.83 1013.88 1013.94 1014.00 1014.03 1014.02 1013.97 1013.87 1013.71 1013.53 1013.32 1013.11 1012.91 1012.74 1012.59 1012.48 1012.39 1012.30 1012.21 1012.09 1011.96 1011.80 1011.63 1011.47 1011.34 1011.25 1011.22 1011.27 1011.39
1012.93 1013.56 1014.11 1014.53 1014.79 1014.91 1014.88 1014.74 1014.53 1014.28 1014.03 1013.81 1013.64 1013.54 1013.50 1013.53 1013.62 1013.73 1013.85 1013.96 1014.04 1014.06 1014.02 1013.92 1013.77 1013.58 1013.38 1013.18 1012.99 1012.82 1012.68 1012.55 1012.42 1012.27 1012.11 1011.91 1011.69 1011.46 1011.24 1011.05 1010.91 1010.85 1010.86 1010.96
1013.08 1013.66 1014.16 1014.55 1014.81 1014.92 1014.89 1014.75 1014.52 1014.24 1013.94 1013.67 1013.44 1013.28 1013.21 1013.22 1013.31 1013.45 1013.62 1013.80 1013.95 1014.05 1014.08 1014.05 1013.96 1013.82 1013.65 1013.46 1013.28 1013.10 1012.94 1012.78 1012.61 1012.43 1012.22 1011.98 1011.71 1011.44 1011.17 1010.94 1010.76 1010.66 1010.65 1010.73
1013.17 1013.68 1014.13 1014.49 1014.73 1014.85 1014.84 1014.72 1014.50 1014.21 1013.90 1013.59 1013.31 1013.11 1012.98 1012.96 1013.02 1013.17 1013.36 1013.58 1013.79 1013.96 1014.08 1014.13 1014.11 1014.04 1013.92 1013.78 1013.61 1013.45 1013.28 1013.11 1012.92 1012.71 1012.48 1012.21 1011.92 1011.62 1011.32 1011.07 1010.86 1010.73 1010.69 1010.74
1013.20 1013.62 1014.01 1014.34 1014.58 1014.72 1014.75 1014.67 1014.49 1014.23 1013.92 1013.60 1013.29 1013.03 1012.85 1012.77 1012.79 1012.91 1013.10 1013.34 1013.59 1013.83 1014.03 1014.17 1014.24 1014.24 1014.20 1014.11 1014.00 1013.86 1013.72 1013.55 1013.36 1013.15 1012.91 1012.64 1012.34 1012.04 1011.74 1011.48 1011.26 1011.11 1011.05 1011.07
1013.14 1013.49 1013.83 1014.14 1014.39 1014.57 1014.66 1014.64 1014.51 1014.30 1014.01 1013.67 1013.33 1013.03 1012.79 1012.65 1012.61 1012.69 1012.86 1013.11 1013.39 1013.69 1013.95 1014.18 1014.34 1014.44 1014.48 1014.47 1014.42 1014.33 1014.22 1014.09 1013.92 1013.73 1013.50 1013.25 1012.98 1012.69 1012.42 1012.17 1011.96 1011.82 1011.74 1011.74
1013.02 1013.32 1013.63 1013.93 1014.20 1014.42 1014.56 1014.60 1014.53 1014.36 1014.09 1013.75 1013.39 1013.05 1012.75 1012.56 1012.47 1012.51 1012.66 1012.90 1013.21 1013.54 1013.88 1014.18 1014.43 1014.62 1014.75 1014.82 1014.84 1014.83 1014.77 1014.68 1014.56 1014.40 1014.22 1014.01 1013.79 1013.55 1013.32 1013.11 1012.94 1012.81 1012.74 1012.73
1012.89 1013.15 1013.44 1013.74 1014.03 1014.28 1014.45 1014.54 1014.51 1014.36 1014.10 1013.76 1013.39 1013.01 1012.68 1012.44 1012.32 1012.33 1012.46 1012.71 1013.04 1013.42 1013.81 1014.18 1014.51 1014.79 1015.00 1015.16 1015.25 1015.30 1015.31 1015.28 1015.22 1015.13 1015.00 1014.86 1014.70 1014.54 1014.38 1014.23 1014.11 1014.02 1013.97 1013.97
1012.78 1013.02 1013.30 1013.59 1013.87 1014.12 1014.31 1014.40 1014.37 1014.22 1013.96 1013.62 1013.23 1012.84 1012.50 1012.25 1012.12 1012.13 1012.28 1012.55 1012.91 1013.34 1013.78 1014.21 1014.61 1014.95 1015.23 1015.46 1015.62 1015.74 1015.81 1015.84 1015.85 1015.83 1015.78 1015.72 1015.64 1015.56 1015.48 1015.41 1015.36 1015.33 1015.33 1015.35
1012.72 1012.95 1013.20 1013.47 1013.72 1013.94 1014.09 1014.15 1014.09 1013.91 1013.63 1013.27 1012.88 1012.50 1012.17 1011.95 1011.86 1011.92 1012.12 1012.44 1012.85 1013.32 1013.81 1014.29 1014.74 1015.13 1015.45 1015.72 1015.94 1016.10 1016.23 1016.33 1016.40 1016.46 1016.49 1016.51 1016.53 1016.53 1016.54 1016.56 1016.59 1016.62 1016.67 1016.73
1012.72 1012.93 1013.14 1013.36 1013.55 1013.70 1013.77 1013.75 1013.63 1013.40 1013.08 1012.72 1012.34 1012.00 1011.73 1011.58 1011.58 1011.72 1012.00 1012.39 1012.88 1013.40 1013.94 1014.45 1014.92 1015.34 1015.68 1015.98 1016.22 1016.42 1016.59 1016.74 1016.87 1016.99 1017.10 1017.20 1017.29 1017.39 1017.48 1017.57 1017.67 1017.78 1017.88 1017.99
1012.75 1012.92 1013.07 1013.21 1013.32 1013.36 1013.33 1013.21 1013.00 1012.72 1012.37 1012.01 1011.67 1011.40 1011.22 1011.19 1011.31 1011.57 1011.97 1012.47 1013.03 1013.61 1014.19 1014.72 1015.20 1015.61 1015.95 1016.24 1016.49 1016.70 1016.89 1017.08 1017.26 1017.43 1017.60 1017.77 1017.93 1018.09 1018.24 1018.40 1018.55 1018.71 1018.86 1019.00
1012.75 1012.86 1012.94 1012.99 1012.99 1012.92 1012.78 1012.56 1012.28 1011.94 1011.59 1011.25 1010.98 1010.80 1010.76 1010.87 1011.14 1011.55 1012.07 1012.68 1013.32 1013.96 1014.56 1015.10 1015.57 1015.95 1016.27 1016.54 1016.77 1016.98 1017.18 1017.39 1017.60 1017.81 1018.02 1018.24 1018.44 1018.64 1018.84 1019.02 1019.21 1019.39 1019.57 1019.74
1012.66 1012.70 1012.70 1012.65 1012.55 1012.38 1012.15 1011.86 1011.53 1011.17 1010.84 1010.56 1010.37 1010.32 1010.42 1010.69 1011.11 1011.66 1012.31 1013.02 1013.74 1014.42 1015.04 1015.57 1016.01 1016.36 1016.64 1016.87 1017.08 1017.27 1017.48 1017.69 1017.92 1018.16 1018.40 1018.64 1018.87 1019.09 1019.29 1019.49 1019.67 1019.86 1020.04 1020.22
1012.43 1012.39 1012.31 1012.19 1012.01 1011.78 1011.50 1011.18 1010.84 1010.51 1010.23 1010.03 1009.96 1010.03 1010.27 1010.68 1011.24 1011.92 1012.67 1013.46 1014.22 1014.93 1015.55 1016.06 1016.47 1016.78 1017.02 1017.22 1017.40 1017.59 1017.79 1018.01 1018.25 1018.51 1018.77 1019.02 1019.25 1019.47 1019.67 1019.84 1020.01 1020.17 1020.33 1020.50
1012.05 1011.95 1011.81 1011.63 1011.42 1011.17 1010.89 1010.59 1010.29 1010.02 1009.83 1009.73 1009.77 1009.96 1010.32 1010.85 1011.51 1012.27 1013.08 1013.91 1014.70 1015.40 1016.01 1016.49 1016.87 1017.15 1017.37 1017.55 1017.71 1017.89 1018.09 1018.32 1018.58 1018.85 1019.12 1019.38 1019.61 1019.82 1020.00 1020.15 1020.29 1020.42 1020.55 1020.68
1011.56 1011.40 1011.23 1011.05 1010.84 1010.63 1010.39 1010.16 1009.94 1009.77 1009.67 1009.67 1009.81 1010.09 1010.53 1011.12 1011.83 1012.62 1013.46 1014.28 1015.06 1015.75 1016.33 1016.79 1017.15 1017.41 1017.62 1017.79 1017.96 1018.15 1018.36 1018.61 1018.89 1019.17 1019.46 1019.72 1019.96 1020.16 1020.32 1020.45 1020.56 1020.65 1020.75 1020.86
1011.02 1010.84 1010.67 1010.51 1010.36 1010.21 1010.06 1009.93 1009.81 1009.74 1009.73 1009.82 1010.03 1010.36 1010.83 1011.42 1012.12 1012.90 1013.70 1014.48 1015.22 1015.88 1016.44 1016.88 1017.23 1017.50 1017.72 1017.91 1018.10 1018.31 1018.56 1018.83 1019.13 1019.44 1019.75 1020.03 1020.27 1020.47 1020.63 1020.75 1020.85 1020.92 1021.00 1021.08
1010.52 1010.36 1010.22 1010.13 1010.05 1009.99 1009.94 1009.91 1009.89 1009.90 1009.97 1010.10 1010.33 1010.66 1011.11 1011.66 1012.30 1013.01 1013.74 1014.46 1015.15 1015.77 1016.30 1016.75 1017.11 1017.40 1017.65 1017.88 1018.12 1018.37 1018.65 1018.96 1019.29 1019.63 1019.96 1020.26 1020.53 1020.75 1020.92 1021.05 1021.15 1021.23 1021.31 1021.38
1010.16 1010.04 1009.97 1009.95 1009.96 1009.99 1010.04 1010.08 1010.14 1010.20 1010.30 1010.44 1010.64 1010.93 1011.30 1011.77 1012.31 1012.92 1013.56 1014.21 1014.84 1015.43 1015.95 1016.41 1016.80 1017.14 1017.44 1017.72 1018.01 1018.31 1018.64 1018.98 1019.35 1019.71 1020.07 1020.40 1020.70 1020.95 1021.15 1021.31 1021.44 1021.55 1021.63 1021.72
Thickness
5520 5526 5537 5548 5557 5566 5573 5574 5576 5583 5586 5592 5600 5608 5619 5627 5632 5638 5645 5651 5656 5661 5667 5672 5675 5679 5681 5683 5685 5687 5689 5689 5688 5685 5683 5680 5679 5679 5677 5677 5675 5673 5672 5669
5517 5526 5541 5547 5549 5555 5562 5566 5570 5571 5577 5587 5594 5602 5613 5618 5624 5631 5637 5643 5648 5653 5658 5662 5667 5671 5674 5677 5678 5680 5681 5683 5683 5683 5682 5680 5679 5678 5677 5674 5672 5671 5669 5666
5519 5529 5536 5539 5541 5546 5554 5562 5567 5569 5570 5576 5585 5599 5606 5610 5615 5620 5628 5633 5639 5643 5649 5654 5658 5661 5664 5667 5670 5671 5673 5675 5676 5676 5675 5674 5673 5672 5671 5671 5670 5669 5666 5663
5514 5523 5530 5534 5538 5545 5547 5556 5560 5563 5571 5578 5582 5597 5601 5603 5607 5613 5620 5626 5631 5636 5640 5644 5648 5651 5654 5656 5659 5661 5663 5665 5667 5668 5668 5668 5667 5667 5669 5669 5668 5666 5662 5659
5510 5519 5527 5531 5536 5542 5544 5549 5552 5556 5563 5569 5576 5587 5601 5599 5602 5607 5613 5618 5623 5627 5631 5634 5637 5640 5644 5646 5648 5651 5654 5656 5658 5659 5660 5660 5662 5663 5664 5664 5663 5661 5659 5656
5510 5517 5524 5529 5531 5536 5536 5538 5539 5544 5552 5561 5576 5582 5597 5599 5601 5602 5606 5611 5615 5618 5622 5626 5628 5631 5634 5636 5638 5641 5644 5646 5648 5649 5651 5652 5653 5654 5655 5655 5655 5654 5653 5651
5504 5510 5516 5524 5522 5523 5534 5536 5538 5542 5548 5566 5562 5571 5592 5592 5594 5597 5599 5603 5607 5610 5614 5617 5620 5622 5625 5627 5629 5631 5635 5637 5639 5640 5641 5643 5643 5644 5645 5646 5646 5645 5645 5643
5511 5508 5512 5519 5526 5527 5532 5539 5546 5555 5561 5565 5551 5568 5584 5583 5585 5588 5592 5595 5598 5602 5606 5608 5610 5612 5614 5616 5619 5622 5624 5627 5629 5630 5632 5633 5633 5634 5635 5635 5635 5635 5634 5633
5519 5508 5508 5514 5521 5529 5528 5534 5538 5547 5547 5559 5566 5567 5573 5574 5578 5582 5586 5589 5592 5595 5597 5599 5600 5602 5604 5607 5609 5611 5613 5616 5618 5619 5621 5622 5623 5622 5623 5622 5621 5621 5619 5617
5521 5508 5506 5509 5517 5517 5527 5531 5532 5537 5547 5564 5569 5571 5579 5572 5575 5578 5581 5585 5587 5588 5589 5591 5592 5593 5594 5596 5598 5600 5602 5604 5606 5607 5609 5609 5610 5610 5609 5608 5606 5604 5601 5598
5520 5513 5503 5509 5514 5519 5519 5523 5531 5539 5544 5559 5572 5576 5578 5576 5575 5575 5577 5580 5581 5581 5582 5582 5583 5583 5584 5586 5588 5590 5591 5592 5594 5595 5596 5596 5596 5595 5594 5591 5588 5584 5580 5577
5516 5517 5508 5506 5509 5517 5523 5528 5531 5537 5538 5543 5560 5568 5568 5572 5571 5571 5573 5573 5574 5573 5573 5573 5574 5574 5575 5576 5577 5578 5579 5580 5580 5581 5582 5582 5580 5579 5576 5572 5567 5563 5558 5554
5516 5513 5507 5505 5507 5510 5518 5521 5527 5529 5533 5539 5555 5564 5560 5564 5565 5567 5569 5570 5570 5568 5566 5567 5566 5566 5566 5566 5566 5567 5567 5567 5567 5568 5568 5567 5564 5561 5557 5551 5546 5540 5535 5530
5517 5515 5519 5526 5528 5523 5519 5520 5523 5526 5533 5542 5550 5558 5559 5561 5563 5566 5568 5567 5566 5563 5560 5559 5559 5558 5557 5556 5556 5556 5555 5555 5555 5554 5553 5550 5547 5542 5537 5531 5525 5519 5513 5508
5517 5513 5511 5515 5516 5519 5523 5524 5524 5527 5537 5541 5549 5548 5558 5562 5562 5564 5565 5563 5560 5557 5554 5552 5550 5550 5548 5548 5547 5545 5545 5543 5543 5541 5538 5534 5529 5524 5519 5514 5507 5500 5494 5488
5514 5511 5509 5510 5512 5515 5519 5525 5527 5529 5534 5537 5540 5546 5558 5559 5559 5560 5562 5560 5557 5552 5547 5544 5541 5541 5540 5539 5537 5536 5534 5532 5531 5529 5524 5519 5514 5509 5504 5498 5491 5484 5478 5473
5511 5511 5511 5515 5511 5513 5525 5533 5531 5532 5536 5539 5541 5551 5556 5555 5557 5560 5559 5556 5552 5546 5541 5537 5535 5532 5530 5529 5528 5526 5524 5522 5520 5517 5512 5507 5502 5496 5490 5484 5478 5472 5466 5462
5510 5510 5510 5512 5511 5514 5536 5536 5537 5537 5539 5540 5545 5550 5552 5554 5554 5553 5551 5550 5545 5539 5533 5530 5527 5525 5523 5521 5519 5517 5514 5512 5509 5506 5501 5496 5491 5485 5479 5473 5467 5461 5457 5453
5508 5509 5509 5511 5517 5527 5534 5533 5532 5533 5540 5545 5544 5547 5549 5549 5549 5550 5541 5538 5535 5530 5525 5523 5520 5518 5516 5513 5511 5509 5506 5503 5499 5496 5491 5486 5482 5476 5470 5464 5459 5454 5450 5446
5500 5505 5507 5508 5512 5526 5534 5533 5533 5535 5541 5545 5545 5546 5547 5545 5552 5554 5534 5527 5523 5519 5516 5514 5512 5511 5509 5506 5503 5502 5498 5495 5491 5486 5482 5478 5474 5469 5463 5458 5453 5448 5444 5440
5495 5497 5501 5507 5512 5527 5531 5529 5529 5533 5540 5541 5542 5544 5544 5545 5548 5538 5526 5521 5516 5512 5509 5507 5505 5503 5501 5498 5496 5492 5489 5486 5482 5478 5475 5471 5466 5461 5457 5452 5447 5443 5439 5436
5504 5504 5504 5508 5510 5521 5525 5525 5530 5535 5535 5537 5538 5539 5540 5538 5530 5523 5519 5514 5509 5506 5503 5501 5499 5496 5493 5491 5488 5484 5481 5477 5474 5471 5467 5464 5460 5456 5452 5448 5443 5440 5437 5434
5505 5510 5513 5514 5519 5522 5521 5524 5527 5527 5530 5532 5533 5534 5532 5529 5525 5520 5514 5510 5505 5501 5498 5496 5494 5490 5487 5484 5482 5478 5474 5471 5468 5464 5460 5457 5454 5450 5447 5444 5440 5437 5433 5431
5503 5502 5505 5510 5516 5518 5518 5520 5520 5521 5523 5525 5525 5526 5525 5525 5522 5516 5511 5506 5501 5497 5494 5491 5489 5485 5481 5478 5476 5473 5469 5466 5463 5459 5455 5452 5449 5446 5442 5438 5436 5433 5429 5426
5505 5500 5503 5508 5513 5515 5516 5514 5513 5513 5515 5515 5516 5517 5518 5519 5517 5513 5508 5504 5499 5494 5490 5487 5485 5482 5478 5474 5471 5467 5464 5462 5459 5455 5451 5447 5443 5441 5437 5432 5429 5426 5422 5419
5499 5502 5504 5510 5510 5510 5511 5506 5504 5505 5506 5507 5508 5510 5511 5511 5511 5508 5505 5501 5496 5491 5487 5483 5481 5478 5474 5470 5467 5463 5460 5457 5454 5450 5446 5442 5438 5435 5431 5427 5422 5416 5414 5410